Date String (YYYY-MM-DD hh:mm:ss) UTC,Instrument flags,absolute air pressure of the measurement (hPa),sample flow rate (lpm),inlet stack bypass flow (lpm),air temperature of the measurement (°C),ambient temperature measured by the external sensor (°C),aerosol sample conditioner tube jacket temperature (°C),OPC LED temperature (°C),internal box temperature (°C),relative humidity of the measurement (%),span deviation,mass concentration of particles derived from Lorenz-Mie calculation of OPC scattering (μg/m³),mass concentration of particles derived from Lorenz-Mie calculation of OPC scattering (μg/m³),mass concentration of particles derived from Lorenz-Mie calculation of OPC scattering (μg/m³)
DateTimeUTC,F1_M11,P_M11,Q1_M11,Q2_M11,T1_M11,T2_M11,T3_M11,T4_M11,T5_M11,U1_M11,ZSPAN_M11,X2_M11,X0_M11,X1_M11
2024-04-11 15:00:00,SystemResetWarning,0833.1,5.00,000.00,023.4,022.7,000.0,031.8,025.2,016.7,0000.0,0003.29,0010.10,0002.64
2024-04-11 15:01:00,SystemResetWarning,0832.8,5.01,000.00,023.4,022.8,000.0,031.8,025.2,016.7,0000.0,0003.26,0010.27,0002.63
2024-04-11 15:02:00,SystemResetWarning,0832.8,5.01,000.00,023.4,022.7,000.0,031.8,025.2,016.8,0000.0,0003.26,0009.85,0002.64
2024-04-11 15:03:00,SystemResetWarning,0832.8,5.00,000.00,023.4,022.7,000.0,031.8,025.2,016.8,0000.0,0003.27,0011.60,0002.64
2024-04-11 15:04:00,SystemResetWarning,0832.8,5.01,000.00,023.4,022.7,000.0,031.8,025.2,016.7,0000.0,0003.25,0012.12,0002.64
2024-04-11 15:05:00,SystemResetWarning,0832.8,5.00,000.00,023.4,022.7,000.0,031.8,025.2,016.6,0000.0,0003.31,0012.20,0002.65
2024-04-11 15:06:00,SystemResetWarning,0832.8,5.00,000.00,023.4,022.7,000.0,031.8,025.2,016.7,0000.0,0003.30,0011.74,0002.67
2024-04-11 15:07:00,SystemResetWarning,0832.8,5.00,000.00,023.4,022.7,000.0,031.8,025.2,016.7,0000.0,0003.30,0011.88,0002.67
2024-04-11 15:08:00,SystemResetWarning,0832.8,5.01,000.00,023.4,022.8,000.0,031.9,025.2,016.7,0000.0,0003.30,0011.57,0002.66
2024-04-11 15:09:00,SystemResetWarning,0832.9,5.00,000.00,023.4,022.8,000.0,031.9,025.2,016.8,0000.0,0003.29,0012.62,0002.66
2024-04-11 15:10:00,SystemResetWarning,0833.0,5.00,000.00,023.4,022.8,000.0,031.9,025.2,016.7,0000.0,0003.34,0013.16,0002.67
2024-04-11 15:11:00,SystemResetWarning,0832.8,4.99,000.00,023.4,022.8,000.0,031.9,025.2,016.6,0000.0,0003.38,0013.52,0002.71
2024-04-11 15:12:00,SystemResetWarning,0832.9,5.00,000.00,023.4,022.8,000.0,031.9,025.2,016.7,0000.0,0003.42,0014.17,0002.77
2024-04-11 15:13:00,SystemResetWarning,0832.8,4.99,000.00,023.4,022.8,000.0,031.9,025.2,016.8,0000.0,0003.44,0013.43,0002.77
2024-04-11 15:14:00,SystemResetWarning,0832.8,5.00,000.00,023.4,022.8,000.0,031.9,025.2,017.0,0000.0,0003.45,0012.62,0002.78
2024-04-11 15:15:00,SystemResetWarning,0832.9,5.00,000.00,023.4,022.8,000.0,031.9,025.2,016.9,0000.0,0003.48,0011.61,0002.80
2024-04-11 15:16:00,SystemResetWarning,0832.9,5.00,000.00,023.4,022.8,000.0,031.9,025.3,016.9,0000.0,0003.48,0011.91,0002.80
2024-04-11 15:17:00,SystemResetWarning,0832.8,5.02,000.00,023.4,022.8,000.0,031.9,025.3,016.7,0000.0,0003.47,0012.79,0002.76
2024-04-11 15:18:00,SystemResetWarning,0832.8,5.00,000.00,023.5,022.8,000.0,031.9,025.3,016.6,0000.0,0003.45,0012.56,0002.75
2024-04-11 15:19:00,SystemResetWarning,0832.8,4.99,000.00,023.5,022.9,000.0,031.9,025.3,016.7,0000.0,0003.43,0011.77,0002.73
2024-04-11 15:20:00,SystemResetWarning,0832.8,5.00,000.00,023.5,022.9,000.0,031.9,025.3,016.4,0000.0,0003.44,0010.49,0002.73
2024-04-11 15:21:00,SystemResetWarning,0832.8,4.99,000.00,023.5,022.9,000.0,031.9,025.4,016.3,0000.0,0003.41,0010.00,0002.72
2024-04-11 15:22:00,SystemResetWarning,0832.8,5.00,000.00,023.5,022.9,000.0,031.9,025.4,016.3,0000.0,0003.37,0009.47,0002.70
2024-04-11 15:23:00,SystemResetWarning,0832.9,5.01,000.00,023.5,022.9,000.0,031.9,025.4,016.1,0000.0,0003.32,0008.59,0002.65
2024-04-11 15:24:00,SystemResetWarning,0832.9,5.01,000.00,023.5,022.9,000.0,031.9,025.4,016.0,0000.0,0003.29,0008.92,0002.63
2024-04-11 15:25:00,SystemResetWarning,0832.8,4.99,000.00,023.5,022.9,000.0,031.9,025.4,016.0,0000.0,0003.26,0008.84,0002.61
2024-04-11 15:26:00,SystemResetWarning,0833.0,4.99,000.00,023.5,022.9,000.0,032.0,025.4,016.1,0000.0,0003.23,0008.86,0002.58
2024-04-11 15:27:00,SystemResetWarning,0833.0,5.00,000.00,023.5,023.0,000.0,032.0,025.4,016.1,0000.0,0003.20,0008.40,0002.56
2024-04-11 15:28:00,SystemResetWarning,0832.8,5.00,000.00,023.5,023.0,000.0,032.0,025.4,016.1,0000.0,0003.18,0008.29,0002.59
2024-04-11 15:29:00,SystemResetWarning,0832.8,5.01,000.00,023.6,023.0,000.0,032.0,025.4,016.1,0000.0,0003.19,0008.56,0002.62
2024-04-11 15:30:00,SystemResetWarning,0832.8,5.00,000.00,023.6,023.0,000.0,032.0,025.4,016.3,0000.0,0003.22,0009.82,0002.65
2024-04-11 15:31:00,SystemResetWarning,0832.8,4.99,000.00,023.6,023.0,000.0,032.0,025.4,016.5,0000.0,0003.22,0010.00,0002.68
2024-04-11 15:32:00,SystemResetWarning,0832.8,4.99,000.00,023.6,023.0,000.0,032.0,025.5,016.5,0000.0,0003.23,0009.64,0002.70
2024-04-11 15:33:00,SystemResetWarning,0832.8,5.00,000.00,023.6,023.0,000.0,032.0,025.5,016.5,0000.0,0003.25,0009.74,0002.71
2024-04-11 15:34:00,SystemResetWarning,0832.8,5.01,000.00,023.6,023.0,000.0,032.0,025.5,016.3,0000.0,0003.30,0009.92,0002.75
2024-04-11 15:35:00,SystemResetWarning,0832.8,5.01,000.00,023.6,023.1,000.0,032.0,025.5,016.2,0000.0,0003.36,0009.75,0002.80
2024-04-11 15:36:00,SystemResetWarning,0832.8,5.00,000.00,023.6,023.1,000.0,032.0,025.5,016.2,0000.0,0003.41,0009.33,0002.87
2024-04-11 15:37:00,SystemResetWarning,0832.8,4.99,000.00,023.6,023.1,000.0,032.0,025.5,016.2,0000.0,0003.46,0009.23,0002.95
2024-04-11 15:38:00,SystemResetWarning,0832.8,5.00,000.00,023.7,023.1,000.0,032.0,025.5,016.2,0000.0,0003.50,0009.29,0003.05
2024-04-11 15:39:00,SystemResetWarning,0832.8,5.00,000.00,023.7,023.1,000.0,032.1,025.5,016.3,0000.0,0003.55,0008.77,0003.12
2024-04-11 15:40:00,SystemResetWarning,0832.8,5.01,000.00,023.7,023.1,000.0,032.1,025.5,016.5,0000.0,0003.59,0008.87,0003.15
2024-04-11 15:41:00,SystemResetWarning,0832.8,5.00,000.00,023.7,023.1,000.0,032.1,025.5,016.6,0000.0,0003.63,0008.30,0003.20
2024-04-11 15:42:00,SystemResetWarning,0832.8,4.99,000.00,023.7,023.2,000.0,032.1,025.5,016.6,0000.0,0003.67,0008.27,0003.22
2024-04-11 15:43:00,SystemResetWarning,0832.8,4.99,000.00,023.7,023.2,000.0,032.1,025.5,016.5,0000.0,0003.73,0009.19,0003.25
2024-04-11 15:44:00,SystemResetWarning,0832.8,5.00,000.00,023.7,023.2,000.0,032.1,025.5,016.3,0000.0,0003.76,0009.72,0003.28
2024-04-11 15:45:00,SystemResetWarning,0832.7,5.01,000.00,023.7,023.2,000.0,032.1,025.5,016.4,0000.0,0003.79,0009.79,0003.30
2024-04-11 15:46:00,SystemResetWarning,0832.8,4.99,000.00,023.7,023.2,000.0,032.1,025.5,016.3,0000.0,0003.81,0009.77,0003.33
2024-04-11 15:47:00,SystemResetWarning,0832.7,4.99,000.00,023.7,023.2,000.0,032.1,025.5,016.3,0000.0,0003.86,0010.14,0003.35
2024-04-11 15:48:00,SystemResetWarning,0832.7,4.99,000.00,023.8,023.2,000.0,032.1,025.6,016.4,0000.0,0003.86,0010.84,0003.36
2024-04-11 15:49:00,SystemResetWarning,0832.7,5.01,000.00,023.8,023.2,000.0,032.1,025.6,016.3,0000.0,0003.87,0010.91,0003.36
2024-04-11 15:50:00,SystemResetWarning,0832.8,5.00,000.00,023.8,023.2,000.0,032.1,025.6,016.2,0000.0,0003.88,0011.01,0003.36
2024-04-11 15:51:00,SystemResetWarning,0832.8,5.00,000.00,023.8,023.2,000.0,032.2,025.6,016.1,0000.0,0003.91,0010.77,0003.37
2024-04-11 15:52:00,SystemResetWarning,0832.9,5.00,000.00,023.8,023.2,000.0,032.2,025.6,016.2,0000.0,0003.94,0010.31,0003.38
2024-04-11 15:53:00,SystemResetWarning,0832.8,4.99,000.00,023.8,023.3,000.0,032.2,025.6,016.2,0000.0,0003.96,0010.17,0003.41
2024-04-11 15:54:00,SystemResetWarning,0832.8,4.99,000.00,023.8,023.3,000.0,032.2,025.6,016.4,0000.0,0003.95,0009.15,0003.42
2024-04-11 15:55:00,SystemResetWarning,0832.8,5.00,000.00,023.8,023.3,000.0,032.2,025.6,016.5,0000.0,0003.96,0008.57,0003.43
2024-04-11 15:56:00,SystemResetWarning,0832.7,5.00,000.00,023.8,023.3,000.0,032.2,025.6,016.3,0000.0,0003.96,0008.71,0003.44
2024-04-11 15:57:00,SystemResetWarning,0832.8,5.00,000.00,023.8,023.3,000.0,032.2,025.6,016.4,0000.0,0003.96,0009.72,0003.45
2024-04-11 15:58:00,SystemResetWarning,0832.8,5.01,000.00,023.8,023.3,000.0,032.2,025.6,016.3,0000.0,0003.95,0010.15,0003.46
2024-04-11 15:59:00,SystemResetWarning,0832.7,5.00,000.00,023.8,023.3,000.0,032.2,025.6,016.4,0000.0,0003.98,0009.56,0003.47
